Simultaneous Nadir Overpasses (SNOs) Predictions

Prediction of SNOs between GOES-16 and NOAA-20 Satellite Orbit:

Table of predicted SNOs for the next 14.0 days since TLE Epoch: 5/18/2024
Index Date Time (GOES-16) GOES-16 Lat,Lon NOAA-20 Lat,Lon Distance(km) Time Diff (sec)
1 05/19/2024 06:27:07 -0.01, -75.21 0.00, -75.19 2.43 80
2 05/21/2024 18:30:13 0.01, -75.22 -0.18, -75.95 83.63 80
3 05/22/2024 18:08:46 0.02, -75.23 0.86, -71.41 434.33 80
4 05/24/2024 06:33:10 -0.01, -75.24 0.33, -76.67 163.37 80
5 05/25/2024 06:11:44 -0.02, -75.25 -0.71, -72.14 354.59 80
6 05/26/2024 18:36:16 0.01, -75.26 -0.48, -77.43 247.66 80
7 05/27/2024 18:14:50 0.01, -75.27 0.57, -72.90 270.64 80
8 05/29/2024 06:39:14 -0.01, -75.29 0.61, -78.16 326.26 80
9 05/30/2024 06:17:47 -0.01, -75.30 -0.39, -73.62 192.48 80
10 05/31/2024 18:42:19 0.01, -75.32 -0.77, -78.91 408.49 80
